Weather History for Ravenna, OH

Change the Weather History Date:

Thursday, March 20, 2014

  Actual Average (KCAK) Record (KCAK)
Temperature  
Mean Temperature 34 °F 39 °F  
Max Temperature 38 °F 48 °F 81 °F (2012)
Min Temperature 30 °F 30 °F 10 °F (1965)
Degree Days  
Heating Degree Days 30 26  
Month to date heating degree days 589  
Since 1 July heating degree days 5133  
Cooling Degree Days 0 0  
Month to date cooling degree days 0  
Year to date cooling degree days 0  
Moisture  
Dew Point 27 °F    
Average Humidity 74    
Maximum Humidity 93    
Minimum Humidity 60    
Precipitation  
Precipitation 0.02 in 0.10 in 0.57 in (2004)
Month to date precipitation 1.82  
Year to date precipitation 6.74  
Snow  
Snow 0.00 in 0.20 in - ()
Month to date snowfall 6.0  
Since 1 July snowfall 42.5  
Snow Depth -    
Sea Level Pressure  
Sea Level Pressure 29.93 in    
Wind  
Wind Speed 14 mph (West)    
Max Wind Speed 21 mph    
Max Gust Speed 30 mph    
Visibility 9 miles    
Events Rain , Snow    
T = Trace of Precipitation, MM = Missing Value Source: NWS Daily Summary

Daily Weather History Graph

Daily Weather History Graph

Search for Another Location

Airport:

Trip Planner

Search our weather history database for the weather conditions in past years. The results will help you decide how hot, cold, wet, or windy it might be!

Date:

Astronomy

Mar. 20, 2014 Rise Set
Actual Time 7:28 AM EDT 7:37 PM EDT
Civil Twilight 7:00 AM EDT 8:04 PM EDT
Nautical Twilight 6:28 AM EDT 8:36 PM EDT
Astronomical Twilight 5:55 AM EDT 9:09 PM EDT
Moon 11:58 PM EDT (3/20) 9:31 AM EDT (3/20)
Length of Visible Light 13h 03m
Length of Day
12h 08m
Waning Gibbous, 84% of the Moon is Illuminated
Mar 20
Waning Gibbous
Mar 23
Last Quarter
Mar 30
New
Apr 7
First Quarter
Apr 15
Full

Hourly Weather History & Observations

Time (EDT) Temp. Windchill Dew Point Humidity Pressure Visibility Wind Dir Wind Speed Gust Speed Precip Events Conditions
12:14 AM 38.1 °F 28.1 °F 35.1 °F 89% 29.83 in 10.0 mi West 19.6 mph 27.6 mph N/A   Overcast
12:34 AM 37.9 °F 28.5 °F 34.0 °F 86% 29.83 in 10.0 mi West 17.3 mph 25.3 mph N/A   Overcast
12:54 AM 37.8 °F 29.0 °F 33.1 °F 83% 29.84 in 10.0 mi West 15.0 mph 27.6 mph N/A   Overcast
1:14 AM 37.4 °F 28.2 °F 32.0 °F 81% 29.84 in 10.0 mi West 16.1 mph 27.6 mph N/A   Overcast
1:34 AM 37.4 °F 27.8 °F 32.0 °F 81% 29.85 in 10.0 mi West 17.3 mph 26.5 mph N/A   Overcast
1:54 AM 37.0 °F 27.0 °F 32.0 °F 82% 29.85 in 10.0 mi West 18.4 mph 26.5 mph N/A   Overcast
2:14 AM 36.9 °F 28.2 °F 31.6 °F 81% 29.85 in 10.0 mi West 13.8 mph 23.0 mph N/A   Overcast
2:34 AM 36.7 °F 28.9 °F 31.1 °F 80% 29.85 in 10.0 mi West 11.5 mph 16.1 mph N/A   Overcast
2:55 AM 36.9 °F 29.1 °F 30.9 °F 79% 29.85 in 10.0 mi West 11.5 mph 16.1 mph N/A   Overcast
3:14 AM 36.9 °F 29.6 °F 30.6 °F 78% 29.85 in 10.0 mi West 10.4 mph - N/A   Overcast
3:34 AM 36.9 °F 28.7 °F 30.4 °F 77% 29.85 in 10.0 mi WSW 12.7 mph 21.9 mph N/A   Overcast
3:54 AM 36.9 °F 30.1 °F 30.7 °F 79% 29.85 in 10.0 mi WSW 9.2 mph 17.3 mph N/A   Overcast
4:14 AM 36.7 °F 28.4 °F 31.1 °F 80% 29.84 in 10.0 mi West 12.7 mph 21.9 mph N/A   Overcast
4:34 AM 36.5 °F 26.3 °F 31.3 °F 81% 29.84 in 10.0 mi West 18.4 mph 23.0 mph N/A   Overcast
4:54 AM 35.8 °F 26.5 °F 30.9 °F 82% 29.85 in 7.0 mi West 15.0 mph 21.9 mph N/A Snow Light Snow
5:14 AM 34.7 °F 24.7 °F 31.6 °F 89% 29.85 in 5.0 mi West 16.1 mph 28.8 mph 0.01 in Rain Rain
5:34 AM 34.2 °F 24.8 °F 31.1 °F 89% 29.86 in 7.0 mi West 13.8 mph 25.3 mph 0.02 in Snow Light Snow
5:54 AM 33.8 °F 24.8 °F 32.0 °F 93% 29.86 in 5.0 mi WSW 12.7 mph 20.7 mph 0.02 in Rain Light Rain
6:14 AM 33.8 °F 24.3 °F 32.0 °F 93% 29.86 in 5.0 mi WSW 13.8 mph 19.6 mph N/A Rain Light Rain
6:35 AM 33.8 °F 23.2 °F 31.1 °F 90% 29.87 in 5.0 mi WSW 17.3 mph 21.9 mph N/A Snow Light Snow
6:54 AM 33.6 °F 23.3 °F 29.8 °F 86% 29.88 in 7.0 mi West 16.1 mph 25.3 mph N/A Snow Light Snow
7:14 AM 33.6 °F 21.9 °F 28.4 °F 81% 29.89 in 7.0 mi West 20.7 mph 26.5 mph N/A Rain Light Rain
7:34 AM 33.3 °F 24.6 °F 27.5 °F 79% 29.90 in 10.0 mi West 11.5 mph 20.7 mph N/A   Overcast
7:54 AM 33.4 °F 23.1 °F 25.7 °F 73% 29.90 in 10.0 mi West 16.1 mph 25.3 mph N/A   Overcast
8:14 AM 33.6 °F 23.7 °F 25.0 °F 71% 29.90 in 10.0 mi West 15.0 mph 21.9 mph N/A   Overcast
8:34 AM 33.4 °F 23.5 °F 26.2 °F 75% 29.91 in 10.0 mi West 15.0 mph - N/A   Overcast
8:54 AM 33.8 °F 23.5 °F 26.4 °F 74% 29.91 in 10.0 mi West 16.1 mph 24.2 mph N/A   Overcast
9:14 AM 32.9 °F 22.4 °F 27.5 °F 81% 29.92 in 5.0 mi WSW 16.1 mph 21.9 mph N/A   Haze
9:34 AM 32.4 °F 22.1 °F 28.4 °F 85% 29.92 in 3.0 mi West 15.0 mph 19.6 mph N/A   Overcast
9:54 AM 32.4 °F 23.0 °F 28.4 °F 85% 29.93 in 5.0 mi West 12.7 mph 19.6 mph N/A   Haze
10:14 AM 33.1 °F 22.2 °F 26.8 °F 78% 29.94 in 10.0 mi West 17.3 mph 25.3 mph N/A   Overcast
10:34 AM 32.9 °F 22.8 °F 26.4 °F 77% 29.95 in 10.0 mi WSW 15.0 mph 23.0 mph N/A   Overcast
10:54 AM 32.9 °F 23.7 °F 26.2 °F 76% 29.95 in 10.0 mi West 12.7 mph - N/A   Overcast
11:14 AM 33.3 °F 23.2 °F 25.7 °F 74% 29.95 in 10.0 mi West 15.0 mph 21.9 mph N/A   Overcast
11:34 AM 33.3 °F 22.8 °F 25.2 °F 72% 29.95 in 10.0 mi West 16.1 mph 19.6 mph N/A   Overcast
11:54 AM 33.3 °F 22.5 °F 25.2 °F 72% 29.95 in 10.0 mi West 17.3 mph 24.2 mph N/A   Overcast
12:14 PM 32.9 °F 22.4 °F 26.1 °F 76% 29.96 in 7.0 mi West 16.1 mph 29.9 mph N/A   Overcast
12:34 PM 32.9 °F 24.1 °F 25.9 °F 75% 29.96 in 10.0 mi West 11.5 mph 20.7 mph N/A   Overcast
12:54 PM 33.3 °F 23.7 °F 25.7 °F 74% 29.96 in 10.0 mi West 13.8 mph 20.7 mph N/A   Overcast
1:14 PM 33.6 °F 23.7 °F 24.8 °F 70% 29.96 in 10.0 mi West 15.0 mph 24.2 mph N/A   Overcast
1:34 PM 33.8 °F 23.5 °F 23.7 °F 67% 29.96 in 10.0 mi WSW 16.1 mph 24.2 mph N/A   Overcast
1:54 PM 34.0 °F 26.6 °F 24.4 °F 68% 29.96 in 10.0 mi West 9.2 mph 23.0 mph N/A   Overcast
2:14 PM 34.2 °F 24.0 °F 24.4 °F 68% 29.95 in 10.0 mi West 16.1 mph 24.2 mph N/A   Overcast
2:34 PM 34.7 °F 25.1 °F 24.6 °F 67% 29.95 in 10.0 mi West 15.0 mph 20.7 mph N/A   Overcast
2:54 PM 34.7 °F 25.1 °F 24.6 °F 67% 29.95 in 10.0 mi West 15.0 mph 18.4 mph N/A   Overcast
3:14 PM 35.2 °F 26.2 °F 24.8 °F 66% 29.95 in 10.0 mi WSW 13.8 mph 18.4 mph N/A   Overcast
3:34 PM 35.6 °F 27.5 °F 24.6 °F 64% 29.95 in 10.0 mi West 11.5 mph - N/A   Overcast
3:54 PM 36.3 °F 27.5 °F 25.0 °F 63% 29.95 in 10.0 mi West 13.8 mph 17.3 mph N/A   Overcast
4:14 PM 36.5 °F 29.2 °F 25.3 °F 64% 29.95 in 10.0 mi WSW 10.4 mph - N/A   Overcast
4:34 PM 36.7 °F 27.6 °F 25.2 °F 63% 29.95 in 10.0 mi West 15.0 mph 20.7 mph N/A   Overcast
4:54 PM 36.9 °F 29.1 °F 25.2 °F 63% 29.95 in 10.0 mi West 11.5 mph 19.6 mph N/A   Overcast
5:14 PM 37.4 °F 29.8 °F 25.2 °F 61% 29.95 in 10.0 mi West 11.5 mph 17.3 mph N/A   Overcast
5:34 PM 37.2 °F 29.6 °F 25.0 °F 61% 29.95 in 10.0 mi West 11.5 mph 19.6 mph N/A   Overcast
5:54 PM 37.4 °F 30.3 °F 24.8 °F 60% 29.95 in 10.0 mi West 10.4 mph 23.0 mph N/A   Overcast
6:14 PM 37.4 °F 29.3 °F 25.5 °F 62% 29.96 in 10.0 mi West 12.7 mph 16.1 mph N/A   Overcast
6:34 PM 37.4 °F 30.8 °F 25.9 °F 63% 29.96 in 10.0 mi West 9.2 mph - N/A   Overcast
6:54 PM 37.4 °F 29.8 °F 25.5 °F 62% 29.97 in 10.0 mi WNW 11.5 mph 16.1 mph N/A   Overcast
7:14 PM 35.8 °F 30.9 °F 25.3 °F 66% 29.98 in 10.0 mi NW 5.8 mph - N/A   Overcast
7:34 PM 35.6 °F 32.8 °F 25.5 °F 67% 29.98 in 10.0 mi NW 3.5 mph - N/A   Overcast
7:54 PM 34.9 °F 32.0 °F 25.5 °F 69% 29.99 in 10.0 mi NW 3.5 mph - N/A   Overcast
8:14 PM 34.7 °F - 25.0 °F 68% 29.99 in 10.0 mi Calm Calm - N/A   Overcast
8:34 PM 34.3 °F - 24.8 °F 68% 30.00 in 10.0 mi Calm Calm - N/A   Overcast
8:54 PM 34.2 °F - 24.4 °F 68% 30.00 in 10.0 mi Calm Calm - N/A   Overcast
9:14 PM 34.0 °F - 23.9 °F 67% 30.00 in 10.0 mi Calm Calm - N/A   Overcast
9:34 PM 34.5 °F 30.4 °F 23.7 °F 65% 30.00 in 10.0 mi WNW 4.6 mph - N/A   Overcast
9:54 PM 33.8 °F - 25.0 °F 70% 30.01 in 10.0 mi Calm Calm - N/A   Overcast
10:14 PM 33.3 °F - 24.6 °F 71% 30.01 in 10.0 mi Calm Calm - N/A   Overcast
10:34 PM 33.1 °F - 25.3 °F 73% 30.01 in 10.0 mi Calm Calm - N/A   Overcast
10:54 PM 32.9 °F - 24.1 °F 70% 30.01 in 10.0 mi Calm Calm - N/A   Overcast
11:14 PM 32.2 °F - 23.9 °F 72% 30.01 in 10.0 mi Calm Calm - N/A   Overcast
11:34 PM 31.1 °F - 25.7 °F 80% 30.01 in 10.0 mi Calm Calm - N/A   Scattered Clouds
11:54 PM 30.9 °F - 23.9 °F 75% 30.01 in 10.0 mi Calm Calm - N/A   Scattered Clouds